Find Kosmos-1072

NORAD ID: 11238 Int'l Des: 1979-003 Owner: VMF Country: SU operational
LEOCIRCULARPOLAR

Aktuelle Ansicht

3D-Globus wird geladen...

About Kosmos-1072

Kosmos-1072 (NORAD 11238) is a satellite launched Jan 16, 1979 by VMF of SU. It operates in LEO, CIRCULAR, POLAR orbit with a mass of 800.00 kg.

Nächste Überflüge

Passes for default location (London). Set your location on the main map for personalized predictions.

Höhenverlauf

Loading altitude history...

Zweizeiliger Elementsatz

1 11238U 79003A 26195.10184066 .00000034 00000-0 20322-4 0 9993
2 11238 82.9403 185.8485 0035742 252.1116 182.0072 13.74384383381074
Epoch: 14. Juli 2026 • Age: 7 hours

Aktueller Status

Höhe 1021.9 km
Apogäum / Perigäum N/A
Geschwindigkeit 7.33 km/s
Subsatellitenpunkt 67.73°N, 129.78°E
Startdatum 16. Jan. 1979
Alter 47.4 years
Typ other

Technische Details

Klassifizierung Payload
Masse 800.00 kg
Trockenmasse 800.00 kg
Gesamtmasse 800.00 kg
Länge 5.00 m
Durchmesser 2.10 m
Spannweite 17.00 m
Form Cyl + Ant
Hersteller OAZ
Bus-Typ KAUR-1 11F627
Phasenstatus In Orbit
Besitzer/Staat VMF/SU

Most Searched